User: anonymous   Login
Location: Unspecified
(0.0000°N, 0.0000°E)
Time: 07:09:28
(UTC+02:00)
Language:

SWIFT - Orbit

View from above orbital plane
View from above orbital plane
View from above satellite
View from above satellite

Ground track
Ground track

The orbit data is extracted from the following two-line orbital elements,

1 28485U 04047A   17235.57749819 +.00001052 +00000-0 +42741-4 0  9990
2 28485 020.5577 023.5972 0011532 009.9785 350.0877 15.03792627698345
Epoch (UTC): 23 August 2017 13:51:35
Eccentricity: 0.0011532
inclination: 20.5577°
perigee height: 547 km
apogee height: 563 km
right ascension of ascending node: 23.5972°
argument of perigee: 9.9785°
revolutions per day: 15.03792627
mean anomaly at epoch: 350.0877°
orbit number at epoch: 69834

The dashed part of the orbit path shows where the satellite is in the earth's shadow,  

DLR